Location: Unspecified
(48.2082°N, 0.0000°E)
Time: 09:50:47
(UTC+00:00)

Tiros 1 despin weight - Pass Details

Date: 22 June 2019
Orbit: 594 x 642 km, 48.2° (Epoch: 24 August)

Event Time Altitude Azimuth Distance (km) Brightness Sun altitude
Rises 01:24:20 0° 261° (W) 2,838 - -16.0°
Exits shadow 01:26:12 - 261° (W) 2,096 ? -15.9°
Reaches altitude 10° 01:26:38 10° 261° (W) 1,932 ? -15.9°
Maximum altitude 01:31:03 87° 177° (S) 601 ? -15.6°
Drops below altitude 10° 01:35:29 10° 85° (E) 1,928 ? -15.3°
Sets 01:37:46 0° 85° (E) 2,832 ? -15.2°
